Aurora, CO

2:03 AM MDT on October 21, 2017 (GMT -0600)
Buckley Air Force Base

Weather History for KBKF - February, 2013

Change the Weather History Date:

Sunday, February 3, 2013

  Actual Average Record
Temperature  
Mean Temperature 40 °F -  
Max Temperature 53 °F 41 °F 58 °F (2015)
Min Temperature 26 °F 20 °F -2 °F (2011)
Degree Days  
Heating Degree Days 26    
Moisture  
Dew Point 12 °F    
Average Humidity 36    
Maximum Humidity 64    
Minimum Humidity 12    
Precipitation  
Precipitation 0.00 in - - ()
Sea Level Pressure  
Sea Level Pressure 29.99 in    
Wind  
Wind Speed 6 mph (SW)    
Max Wind Speed 10 mph    
Max Gust Speed -    
Visibility 10 miles    
Events      
Averages and records for this station are not official NWS values.
T = Trace of Precipitation, MM = Missing Value Source: NWS Daily Summary

Daily Weather History Graph

Daily Weather History Graph

Search for Another Location

Airport or City:

Trip Planner

Search our weather history database for the weather conditions in past years. The results will help you decide how hot, cold, wet, or windy it might be!

Date:

Astronomy

Feb. 03, 2013 Rise Set
Actual Time 7:04 AM MST 5:21 PM MST
Civil Twilight 6:36 AM MST 5:49 PM MST
Nautical Twilight 6:04 AM MST 6:22 PM MST
Astronomical Twilight 5:32 AM MST 6:53 PM MST
Moon 12:35 AM MST (2/3) 11:00 AM MST (2/3)
Length of Visible Light 11h 13m
Length of Day
10h 16m
Waning Gibbous, 48% of the Moon is Illuminated
Feb 3
Waning Gibbous
Feb 10
New
Feb 17
First Quarter
Feb 25
Full
Mar 4
Last Quarter

Hourly Weather History & Observations

Time (MST) Temp. Windchill Dew Point Humidity Pressure Visibility Wind Dir Wind Speed Gust Speed Precip Events Conditions
12:55 AM 26.6 °F 16.8 °F 15.8 °F 64% 30.19 in 10.0 mi South 10.4 mph - N/A   Partly Cloudy
1:55 AM 26.6 °F 16.8 °F 14.0 °F 59% 30.15 in 10.0 mi South 10.4 mph - N/A   Mostly Cloudy
2:55 AM 28.4 °F 23.3 °F 14.0 °F 55% 30.11 in 10.0 mi SSW 4.6 mph - N/A   Mostly Cloudy
3:55 AM 32.0 °F - 14.0 °F 48% 30.11 in 10.0 mi WSW 2.3 mph - N/A   Mostly Cloudy
4:55 AM 32.0 °F - 14.0 °F 48% 30.12 in 10.0 mi Calm Calm - N/A   Mostly Cloudy
5:55 AM 32.0 °F 24.8 °F 14.0 °F 48% 30.12 in 10.0 mi SW 8.1 mph - N/A   Scattered Clouds
6:55 AM 32.0 °F 24.8 °F 14.0 °F 48% 30.11 in 70.0 mi SSW 8.1 mph - N/A   Mostly Cloudy
7:55 AM 32.0 °F - 14.0 °F 48% 30.12 in 70.0 mi South 2.3 mph - N/A   Mostly Cloudy
8:55 AM 35.6 °F 29.9 °F 14.0 °F 41% 30.09 in 70.0 mi SSW 6.9 mph - N/A   Mostly Cloudy
9:55 AM 42.8 °F 38.0 °F 10.4 °F 27% 30.04 in 70.0 mi SSW 8.1 mph - N/A   Mostly Cloudy
10:55 AM 48.2 °F - 5.0 °F 17% 29.99 in 70.0 mi SW 6.9 mph - N/A   Mostly Cloudy
11:55 AM 50.0 °F - 3.2 °F 15% 29.96 in 70.0 mi Calm Calm - N/A   Overcast
12:55 PM 53.6 °F - 1.4 °F 12% 29.89 in 70.0 mi Calm Calm - N/A   Overcast
1:55 PM 53.6 °F - 3.2 °F 13% 29.86 in 70.0 mi Calm Calm - N/A   Overcast
2:55 PM 50.0 °F - 17.6 °F 28% 29.85 in 70.0 mi North 3.5 mph - N/A   Overcast
3:55 PM 48.2 °F - 17.6 °F 30% 29.85 in 70.0 mi Calm Calm - N/A   Overcast
4:55 PM 46.4 °F 44.3 °F 17.6 °F 32% 29.86 in 70.0 mi NW 4.6 mph - N/A   Overcast
5:55 PM 44.6 °F 39.7 °F 10.4 °F 25% 29.87 in 25.0 mi NNW 9.2 mph - N/A   Mostly Cloudy
6:55 PM 41.0 °F 37.1 °F 12.2 °F 31% 29.90 in 25.0 mi NW 5.8 mph - N/A   Mostly Cloudy
7:55 PM 35.6 °F 29.9 °F 14.0 °F 41% 29.92 in 25.0 mi West 6.9 mph - N/A   Partly Cloudy
8:55 PM 35.6 °F - 12.2 °F 38% 29.93 in 25.0 mi SE 2.3 mph - N/A   Partly Cloudy
9:55 PM 37.4 °F 33.8 °F 10.4 °F 33% 29.91 in 25.0 mi West 4.6 mph - N/A   Clear
10:55 PM 37.4 °F - 6.8 °F 28% 29.88 in 25.0 mi West 2.3 mph - N/A   Clear
11:55 PM 32.0 °F 24.8 °F 8.6 °F 38% 29.92 in 25.0 mi East 8.1 mph - N/A   Clear